This is the latest recevied weather packets stored in our database for station/object W4TBD-13. If no packets are shown the sender has not sent any weather packets the latest 10 day(s).
| Time | Temp. | Humidity | Pressure | Rain* | Wind** | Luminosity | Snow |
|---|---|---|---|---|---|---|---|
| 1778153105 | 12.78° C | 98% | 1001.7 hPa | 0 mm | - | 5 W/m² | - |
| 1778150104 | 13.33° C | 98% | 1001.1 hPa | 0.25 mm | - | 0 W/m² | - |
| 1778148604 | 13.33° C | 98% | 1001.2 hPa | 0.25 mm | - | 0 W/m² | - |
| 1778148004 | 13.33° C | 98% | 1000.9 hPa | 0.25 mm | - | 0 W/m² | - |
| 1778147104 | 13.89° C | 97% | 1000.8 hPa | 0.25 mm | - | 0 W/m² | - |
| 1778146204 | 14.44° C | 97% | 1000.6 hPa | 0.25 mm | - | 0 W/m² | - |
| 1778145904 | 15° C | 96% | 1000.8 hPa | 0 mm | - | 0 W/m² | - |
| 1778143504 | 18.33° C | 96% | 1000.2 hPa | 0 mm | - | 0 W/m² | - |
| 1778136304 | 20° C | 90% | 999.5 hPa | 0 mm | - | 0 W/m² | - |
| 1778128804 | 20.56° C | 85% | 1000.6 hPa | 0 mm | - | 0 W/m² | - |
| 1778128205 | 20.56° C | 86% | 1000.9 hPa | 0 mm | - | 0 W/m² | - |
| 1778125504 | 20° C | 86% | 1000.8 hPa | 0 mm | - | 0 W/m² | - |
| 1778125204 | 20° C | 86% | 1000.5 hPa | 0 mm | - | 0 W/m² | - |
| 1778122504 | 20° C | 88% | 1000 hPa | 0 mm | - | 0 W/m² | - |
| 1778121305 | 20° C | 87% | 1000.1 hPa | 0 mm | - | 0 W/m² | - |
| 1778120703 | 20° C | 87% | 1000.2 hPa | 0 mm | - | 0 W/m² | - |
| 1778119505 | 20° C | 87% | 1000.4 hPa | 0 mm | - | 0 W/m² | - |
| 1778116205 | 20° C | 86% | 1000.4 hPa | 0 mm | - | 0 W/m² | - |
| 1778115906 | 20° C | 86% | 1000.5 hPa | 0 mm | - | 0 W/m² | - |
| 1778114105 | 20.56° C | 84% | 1000.5 hPa | 0 mm | - | 0 W/m² | - |
| 1778113205 | 20.56° C | 84% | 1000.6 hPa | 0 mm | - | 0 W/m² | - |
| 1778112905 | 20.56° C | 84% | 1000.4 hPa | 0 mm | - | 0 W/m² | - |
| 1778111105 | 21.11° C | 81% | 1000.6 hPa | 0 mm | - | 0 W/m² | - |
| 1778109605 | 21.67° C | 80% | 1000.2 hPa | 0 mm | - | 0 W/m² | - |
| 1778109004 | 21.67° C | 79% | 1000.1 hPa | 0 mm | - | 0 W/m² | - |
* Rain latest hour (hover to see other rain measurements)
** Current wind speed in m/s (hover to see current wind gust speed)